TimeEST,TemperatureF,Dew PointF,Humidity,Sea Level PressureIn,VisibilityMPH,Wind Direction,Wind SpeedMPH,Gust SpeedMPH,PrecipitationIn,Events,Conditions,WindDirDegrees,DateUTC
12:54 AM,36.0,34.0,93,29.97,0.5,Calm,Calm,-,N/A,Fog,Fog,0,2013-01-14 05:54:00
1:35 AM,35.6,35.6,100,29.98,0.2,Calm,Calm,-,N/A,Fog,Fog,0,2013-01-14 06:35:00
1:54 AM,36.0,35.1,97,29.99,0.5,Calm,Calm,-,N/A,Fog,Fog,0,2013-01-14 06:54:00
2:54 AM,36.0,35.1,97,30.02,0.8,SW,4.6,-,0.00,,Mist,220,2013-01-14 07:54:00
3:47 AM,37.4,37.4,100,29.99,0.5,Calm,Calm,-,0.00,Fog-Rain,Light Rain,0,2013-01-14 08:47:00
3:54 AM,37.0,36.0,96,29.98,0.5,Calm,Calm,-,0.00,Fog-Rain,Light Rain,0,2013-01-14 08:54:00
5:20 AM,42.8,39.2,87,29.92,1.2,NW,11.5,18.4,0.01,Rain,Light Rain,310,2013-01-14 10:20:00
5:26 AM,42.8,41.0,93,29.92,3.0,NW,9.2,18.4,0.01,Rain,Light Rain,310,2013-01-14 10:26:00
5:54 AM,44.1,43.0,96,29.93,10.0,Calm,Calm,-,0.01,,Overcast,0,2013-01-14 10:54:00
6:07 AM,42.8,41.0,93,29.93,2.0,SE,6.9,-,N/A,,Overcast,140,2013-01-14 11:07:00
6:13 AM,42.8,39.2,87,29.96,1.0,SW,3.5,-,N/A,,Mostly Cloudy,220,2013-01-14 11:13:00
6:17 AM,39.2,39.2,100,29.96,0.8,SW,4.6,-,N/A,,Mostly Cloudy,220,2013-01-14 11:17:00
6:49 AM,42.8,41.0,93,29.96,1.2,SSW,4.6,-,N/A,,Mostly Cloudy,210,2013-01-14 11:49:00
6:54 AM,42.1,41.0,96,29.97,1.5,SW,4.6,-,N/A,,Overcast,220,2013-01-14 11:54:00
6:58 AM,41.0,41.0,100,29.95,0.8,SSW,4.6,-,N/A,,Overcast,200,2013-01-14 11:58:00
7:42 AM,42.8,41.0,93,29.99,0.5,SSW,6.9,-,N/A,Fog,Fog,210,2013-01-14 12:42:00
7:54 AM,42.1,39.9,92,30.01,0.5,SW,6.9,-,N/A,Fog,Fog,220,2013-01-14 12:54:00
7:59 AM,42.8,41.0,93,30.01,1.2,SW,6.9,-,N/A,,Overcast,230,2013-01-14 12:59:00
8:04 AM,42.8,41.0,93,30.01,3.0,WSW,6.9,-,N/A,,Overcast,240,2013-01-14 13:04:00
8:31 AM,42.8,42.8,100,30.02,7.0,WSW,5.8,-,N/A,,Overcast,240,2013-01-14 13:31:00
8:54 AM,44.1,43.0,96,30.05,6.0,SW,10.4,-,N/A,,Mostly Cloudy,220,2013-01-14 13:54:00
9:07 AM,44.6,42.8,93,30.04,8.0,North,-9999.0,-,N/A,,Scattered Clouds,0,2013-01-14 14:07:00
9:54 AM,45.0,43.0,93,30.06,5.0,SW,4.6,-,N/A,,Partly Cloudy,220,2013-01-14 14:54:00
10:54 AM,48.9,45.0,86,30.08,10.0,WSW,6.9,-,N/A,,Partly Cloudy,240,2013-01-14 15:54:00
11:54 AM,53.1,39.0,59,30.09,10.0,WNW,13.8,20.7,N/A,,Clear,300,2013-01-14 16:54:00
1:54 PM,53.1,34.0,48,30.10,10.0,NW,6.9,18.4,N/A,,Scattered Clouds,320,2013-01-14 18:54:00
2:54 PM,50.0,30.9,48,30.14,10.0,NW,11.5,20.7,N/A,,Clear,310,2013-01-14 19:54:00
3:54 PM,48.0,28.9,48,30.16,10.0,WNW,6.9,-,N/A,,Clear,300,2013-01-14 20:54:00
4:54 PM,44.1,26.1,49,30.17,10.0,Calm,Calm,-,N/A,,Clear,0,2013-01-14 21:54:00
5:54 PM,37.9,32.0,79,30.18,10.0,Calm,Calm,-,N/A,,Mostly Cloudy,0,2013-01-14 22:54:00
6:54 PM,39.9,28.0,63,30.23,10.0,NNE,9.2,-,N/A,,Mostly Cloudy,30,2013-01-14 23:54:00
7:54 PM,39.0,27.0,62,30.27,10.0,NNE,6.9,-,N/A,,Partly Cloudy,30,2013-01-15 00:54:00
8:54 PM,37.0,28.0,70,30.27,10.0,NNW,3.5,-,N/A,,Scattered Clouds,340,2013-01-15 01:54:00
9:54 PM,36.0,28.0,73,30.29,10.0,Calm,Calm,-,N/A,,Overcast,0,2013-01-15 02:54:00
10:54 PM,37.9,27.0,65,30.30,10.0,Calm,Calm,-,N/A,,Overcast,0,2013-01-15 03:54:00
11:54 PM,37.0,27.0,67,30.28,10.0,Calm,Calm,-,N/A,,Overcast,0,2013-01-15 04:54:00